Bolton Field, OH

3:55 AM EDT on July 23, 2017 (GMT -0400)
Bolton

Weather History for KTZR - January, 2014

Change the Weather History Date:

Thursday, January 30, 2014

  Actual Average Record
Temperature  
Mean Temperature 16 °F -  
Max Temperature 29 °F 36 °F 60 °F (2013)
Min Temperature 2 °F 22 °F 1 °F (2004)
Degree Days  
Heating Degree Days 50    
Moisture  
Dew Point 4 °F    
Average Humidity 60    
Maximum Humidity 72    
Minimum Humidity 47    
Precipitation  
Precipitation 0.00 in - - ()
Sea Level Pressure  
Sea Level Pressure 30.11 in    
Wind  
Wind Speed 8 mph (South)    
Max Wind Speed 14 mph    
Max Gust Speed 21 mph    
Visibility 10 miles    
Events      
Averages and records for this station are not official NWS values.
T = Trace of Precipitation, MM = Missing Value Source: NWS Daily Summary

Daily Weather History Graph

Daily Weather History Graph

Search for Another Location

Airport or City:

Trip Planner

Search our weather history database for the weather conditions in past years. The results will help you decide how hot, cold, wet, or windy it might be!

Date:

Astronomy

Jan. 30, 2014 Rise Set
Actual Time 7:42 AM EST 5:49 PM EST
Civil Twilight 7:13 AM EST 6:18 PM EST
Nautical Twilight 6:41 AM EST 6:50 PM EST
Astronomical Twilight 6:09 AM EST 7:22 PM EST
Moon 7:07 AM EST (1/30) 6:00 PM EST (1/30)
Length of Visible Light 11h 04m
Length of Day
10h 06m
Waning Crescent, 0% of the Moon is Illuminated
Jan 30
Waning Crescent
Jan 30
New
Feb 6
First Quarter
Feb 14
Full
Feb 22
Last Quarter

Hourly Weather History & Observations

Time (EST) Temp. Windchill Dew Point Humidity Pressure Visibility Wind Dir Wind Speed Gust Speed Precip Events Conditions
12:15 AM 6.4 °F -3.9 °F -2.6 °F 67% 30.26 in 10.0 mi South 5.8 mph - N/A   Clear
12:35 AM 6.4 °F - -2.2 °F 68% 30.26 in 10.0 mi North - - N/A   Clear
12:55 AM 6.6 °F -3.7 °F -2.2 °F 67% 30.26 in 10.0 mi SSE 5.8 mph - N/A   Clear
1:15 AM 5.7 °F -4.8 °F -2.7 °F 68% 30.26 in 10.0 mi SSE 5.8 mph - N/A   Clear
1:35 AM 5.2 °F -7.9 °F -3.1 °F 69% 30.26 in 10.0 mi SSE 8.1 mph - N/A   Clear
1:55 AM 5.7 °F -6.1 °F -2.7 °F 68% 30.26 in 10.0 mi SSE 6.9 mph - N/A   Clear
2:15 AM 5.0 °F -8.1 °F -3.1 °F 69% 30.25 in 10.0 mi South 8.1 mph - N/A   Clear
2:35 AM 5.5 °F -7.4 °F -2.6 °F 69% 30.25 in 10.0 mi South 8.1 mph - N/A   Clear
2:55 AM 5.2 °F -6.7 °F -3.1 °F 69% 30.25 in 10.0 mi South 6.9 mph - N/A   Clear
3:15 AM 5.9 °F -7.0 °F -2.2 °F 69% 30.25 in 10.0 mi South 8.1 mph - N/A   Clear
3:35 AM 5.9 °F -7.0 °F -2.2 °F 69% 30.25 in 10.0 mi South 8.1 mph - N/A   Clear
3:55 AM 5.5 °F -9.3 °F -2.6 °F 69% 30.24 in 10.0 mi SSE 10.4 mph - N/A   Clear
4:15 AM 5.4 °F -8.6 °F -2.6 °F 70% 30.24 in 10.0 mi South 9.2 mph - N/A   Clear
4:35 AM 4.8 °F -8.3 °F -3.1 °F 70% 30.25 in 10.0 mi South 8.1 mph - N/A   Clear
4:55 AM 5.7 °F -9.1 °F -2.2 °F 70% 30.24 in 10.0 mi South 10.4 mph - N/A   Clear
5:15 AM 4.6 °F -7.4 °F -3.1 °F 70% 30.24 in 10.0 mi SSE 6.9 mph - N/A   Clear
5:35 AM 3.9 °F -8.2 °F -3.5 °F 71% 30.24 in 10.0 mi South 6.9 mph - N/A   Clear
5:55 AM 4.5 °F -6.3 °F -3.3 °F 70% 30.24 in 10.0 mi South 5.8 mph - N/A   Clear
6:15 AM 2.8 °F -8.2 °F -4.4 °F 72% 30.25 in 10.0 mi SSE 5.8 mph - N/A   Clear
7:15 AM 3.2 °F -7.8 °F -4.0 °F 72% 30.26 in 10.0 mi South 5.8 mph - N/A   Clear
7:47 AM 3.2 °F -9.1 °F -4.0 °F 72% 30.25 in 10.0 mi SSE 6.9 mph - N/A   Clear
8:50 AM 8.6 °F -3.7 °F -2.2 °F 62% 30.24 in 10.0 mi SSE 8.1 mph - N/A   Clear
9:50 AM 10.4 °F -3.3 °F -0.4 °F 62% 30.23 in 10.0 mi SSE 10.4 mph - N/A   Clear
10:47 AM 15.8 °F 8.6 °F 1.4 °F 53% 30.24 in 10.0 mi South 4.6 mph - N/A   Clear
11:50 AM 19.4 °F 6.0 °F 3.2 °F 49% 30.17 in 10.0 mi SSE 13.8 mph 20.7 mph N/A   Clear
12:50 PM 21.2 °F 8.9 °F 6.8 °F 54% 30.12 in 10.0 mi SSE 12.7 mph - N/A   Unknown
12:52 PM 21.2 °F 8.9 °F 6.8 °F 54% 30.12 in 10.0 mi SSE 12.7 mph - N/A   Mostly Cloudy
1:50 PM 23.0 °F 11.1 °F 8.6 °F 54% 30.06 in 10.0 mi SSE 12.7 mph - N/A   Mostly Cloudy
2:50 PM - - - N/A% 30.03 in 10.0 mi SSE 11.5 mph 18.4 mph N/A   Clear
3:50 PM 26.6 °F - 8.6 °F 47% 30.01 in 10.0 mi North - - N/A   Clear
4:58 PM 26.6 °F 15.7 °F 10.4 °F 51% 29.97 in 10.0 mi SSE 12.7 mph - N/A   Clear
5:50 PM 26.6 °F 15.2 °F 10.4 °F 51% 29.93 in 10.0 mi SSE 13.8 mph - N/A   Clear
6:35 PM 27.1 °F 15.9 °F 10.4 °F 49% 29.94 in 10.0 mi South 13.8 mph - N/A   Clear
6:50 PM 26.6 °F 15.2 °F 10.4 °F 51% 29.94 in 10.0 mi SSE 13.8 mph - N/A   Clear
6:55 PM 27.3 °F 16.6 °F 10.8 °F 50% 29.94 in 10.0 mi SSE 12.7 mph 18.4 mph N/A   Clear
7:15 PM 27.3 °F 16.6 °F 11.1 °F 51% 29.94 in 10.0 mi South 12.7 mph - N/A   Clear
7:35 PM 27.7 °F 17.1 °F 11.7 °F 51% 29.94 in 10.0 mi South 12.7 mph - N/A   Clear
7:55 PM 27.9 °F 18.4 °F 12.2 °F 52% 29.94 in 10.0 mi South 10.4 mph - N/A   Clear
8:15 PM 28.0 °F 19.3 °F 12.7 °F 53% 29.94 in 10.0 mi South 9.2 mph - N/A   Clear
8:35 PM 28.4 °F 22.2 °F 12.2 °F 51% 29.94 in 10.0 mi South 5.8 mph - N/A   Clear
8:55 PM 28.4 °F 20.4 °F 12.6 °F 52% 29.95 in 10.0 mi SSW 8.1 mph - N/A   Clear
9:15 PM 28.8 °F 20.2 °F 12.4 °F 50% 29.95 in 10.0 mi SSW 9.2 mph - N/A   Clear
9:35 PM 28.4 °F - 14.0 °F 55% 29.96 in 10.0 mi North - - N/A   Scattered Clouds
9:55 PM 28.8 °F - 14.0 °F 54% 29.97 in 10.0 mi North - - N/A   Mostly Cloudy
10:15 PM 28.4 °F 19.7 °F 14.0 °F 55% 29.97 in 10.0 mi SSW 9.2 mph - N/A   Mostly Cloudy
10:35 PM 27.7 °F 19.6 °F 13.6 °F 56% 29.98 in 10.0 mi SSW 8.1 mph - N/A   Scattered Clouds
10:55 PM 27.5 °F 19.3 °F 13.3 °F 55% 29.97 in 10.0 mi South 8.1 mph - N/A   Scattered Clouds
11:15 PM 28.9 °F 21.9 °F 13.8 °F 53% 29.98 in 10.0 mi SSW 6.9 mph - N/A   Overcast
11:35 PM 29.3 °F 21.5 °F 14.2 °F 53% 29.97 in 10.0 mi South 8.1 mph - N/A   Overcast
11:55 PM 29.3 °F 20.8 °F 14.0 °F 53% 29.97 in 10.0 mi SSW 9.2 mph - N/A   Overcast